Regional Weather Roundup
Issued by NWS

Home | Current Version | Previous Version | Text Only | Print | Product List | Glossary On
Versions: 1 2 3 4 5 6 7 8 9 10 11 12 13 14 15 16 17 18 19 20 21 22 23 24 25 26 27 28 29 30 31 32 33 34 35 36 37 38 39 40 41 42 43 44 45 46 47 48 49 50
690
ASUS43 KBIS 251610
RWRND

NORTH DAKOTA REGIONAL WEATHER ROUNDUP
NATIONAL WEATHER SERVICE BISMARCK ND
1100 AM CDT MON JUL 25 2016

NOTE: "FAIR" INDICATES FEW OR NO CLOUDS BELOW 12,000 FEET WITH NO
SIGNIFICANT WEATHER AND/OR OBSTRUCTIONS TO VISIBILITY.


NDZ001>003-009>011-017-251700-
NORTHWEST NORTH DAKOTA

CITY           SKY/WX    TMP DP  RH WIND       PRES   REMARKS
WILLISTON      SUNNY     80  56  43 N3        29.98S
MINOT          SUNNY     82  61  48 SE7       29.97S
MINOT AFB      SUNNY     79  60  52 VRB7      29.96S
$$

NDZ018>021-031>035-040>046-251700-
SOUTHWEST NORTH DAKOTA

CITY           SKY/WX    TMP DP  RH WIND       PRES   REMARKS
BISMARCK       SUNNY     81  63  54 SW8       29.99F
DICKINSON      SUNNY     82  54  37 NW7       29.99S
GARRISON         N/A     76  61  59 CALM      29.98S
HETTINGER ARPT SUNNY     88  53  30 VRB6      30.03F
$$

NDZ004>008-012>016-024-026-027-054-251700-
NORTHEAST NORTH DAKOTA

CITY           SKY/WX    TMP DP  RH WIND       PRES   REMARKS
GRAND FORKS    SUNNY     80  58  46 VRB3      30.01S
GRND FRKS AFB  SUNNY     80  59  49 SW6       30.02S
DEVILS LAKE    SUNNY     76  62  62 SE8       30.01F
$$

NDZ022-023-025-028>030-036>039-047>053-251700-
SOUTHEAST NORTH DAKOTA

CITY           SKY/WX    TMP DP  RH WIND       PRES   REMARKS
FARGO          SUNNY     79  59  50 S7        30.04F
JAMESTOWN      SUNNY     79  64  60 S10       30.01F
$$





USA.gov is the U.S. government's official web portal to all federal, state and local government web resources and services.